Stations météo

Publicité
Grenoble/St.Geoirs, France (7486): Température de l'air & dewpoint: 15.10.2019 06:00:00 - 21.10.2019 06:00:00 (CEST)Grenoble/St.Geoirs, France (7486): Température de l'air 5cm: 15.10.2019 06:00:00 - 21.10.2019 06:00:00 (CEST)Grenoble/St.Geoirs, France (7486): Température de l'air -20cm & Température de l'air -100cm: 15.10.2019 06:00:00 - 21.10.2019 06:00:00 (CEST)Grenoble/St.Geoirs, France (7486): Vitesse du vent & gusts: 15.10.2019 06:00:00 - 21.10.2019 06:00:00 (CEST)Grenoble/St.Geoirs, France (7486): Direction du vent: 15.10.2019 06:00:00 - 21.10.2019 06:00:00 (CEST)Grenoble/St.Geoirs, France (7486): reduced air pressure: 15.10.2019 06:00:00 - 21.10.2019 06:00:00 (CEST)Grenoble/St.Geoirs, France (7486): visibility: 15.10.2019 06:00:00 - 21.10.2019 06:00:00 (CEST)Grenoble/St.Geoirs, France (7486): Ensoleillement: 15.10.2019 06:00:00 - 21.10.2019 06:00:00 (CEST)Grenoble/St.Geoirs, France (7486): Quantités de précipitations: 15.10.2019 06:00:00 - 21.10.2019 06:00:00 (CEST)
Date & Time tt [°C] td [°C] tt 5cm [°C] tt -20cm [°C] tt -100cm [°C] ff [km/h] ff [knt] fx [km/h] fx [knt] dd ppp [hPa] vv [km] sd [min] rr [mm]
21.10.2019 06:00:00 14,7 12,0 13,3 15,7 15,8 21 12 35 19 SW 1015,2 11 0 0,4
21.10.2019 05:00:00 16,6 11,3 15,1 15,6 15,7 22 12 53 28 SSW 1014,3 14 0 0,0
21.10.2019 04:00:00 16,3 11,7 15,5 15,7 15,7 28 15 54 29 SSW 1013,7 27 0 0,0
21.10.2019 03:00:00 16,3 12,1 14,8 15,7 15,7 30 16 49 26 SSW 1013,5 25 0 0,0
21.10.2019 02:00:00 15,9 13,6 14,2 15,7 15,8 24 13 45 24 SSW 1012,8 28 0 0,6
21.10.2019 01:00:00 15,1 12,8 13,9 15,7 15,7 18 10 50 27 SW 1012,1 29 0 1,0
21.10.2019 00:00:00 14,9 13,9 14,2 15,7 15,7 8 4 24 13 WNW 1011,9 2,5 0 3,0
20.10.2019 23:00:00 16,2 13,3 14,3 15,7 15,8 3 2 46 25 E 1009,6 11 0 1,2
20.10.2019 22:00:00 15,4 11,8 13,3 15,7 15,7 13 7 35 19 WSW 1009,9 35 0 0,2
20.10.2019 21:00:00 15,1 11,7 14,5 15,7 15,8 13 7 59 32 WNW 1009,4 31 0 0,0
20.10.2019 20:00:00 23,4 7,9 22,2 15,7 15,7 37 20 82 44 S 1006,6 32 0 0,0
20.10.2019 19:00:00 23,8 7,4 22,5 15,6 15,7 43 23 78 42 SSE 1003,6 31 0 0,0
20.10.2019 18:00:00 24,1 8,9 23,1 15,5 15,7 35 19 76 41 S 1003,2 25 27 0,0
20.10.2019 17:00:00 24,7 8,2 23,7 15,4 15,7 48 26 86 46 S 1003,2 17 13 0,0
20.10.2019 16:00:00 25,3 9,6 25,3 15,3 15,7 29 16 71 38 S 1002,5 22 36 0,0
20.10.2019 15:00:00 25,4 8,8 25,6 15,3 15,8 37 20 66 36 S 1003,6 22 43 0,0
20.10.2019 14:00:00 25,0 9,7 24,5 15,2 15,7 33 18 54 29 S 1003,8 24 12 0,0
20.10.2019 13:00:00 23,5 9,1 23,1 15,2 15,7 22 12 45 24 S 1004,6 27 4 0,0
20.10.2019 12:00:00 23,3 10,0 22,5 15,2 15,7 24 13 53 29 S 1005,1 24 47 0,0
20.10.2019 11:00:00 22,5 8,9 21,0 15,2 15,7 22 12 54 29 S 1005,5 28 23 0,0
20.10.2019 10:00:00 21,7 8,9 19,0 15,3 15,7 31 17 55 30 S 1005,3 21 0 0,0
20.10.2019 09:00:00 20,4 9,6 17,8 15,3 15,7 15 8 35 19 S 1005,1 27 7 0,0
20.10.2019 08:00:00 19,5 10,2 16,7 15,3 15,8 11 6 29 16 S 1004,7 30 0 0,0
20.10.2019 07:00:00 19,1 9,3 15,6 15,3 15,7 6 3 18 10 SSE 1005,2 30 0 0,0
20.10.2019 06:00:00 19,2 9,1 16,3 15,4 15,7 10 6 27 15 S 1005,6 38 0 0,0
20.10.2019 05:00:00 19,2 8,8 16,9 15,4 15,7 16 9 37 20 S 1005,8 40 0 0,0
20.10.2019 04:00:00 18,8 9,3 13,5 15,4 15,7 25 13 44 24 S 1005,9 37 0 0,0
20.10.2019 03:00:00 15,4 11,8 13,6 15,5 15,7 17 9 33 18 SW 1006,6 26 0 0,0
20.10.2019 02:00:00 16,1 12,5 11,8 15,5 15,7 19 10 31 17 WSW 1006,8 25 0 0,0
20.10.2019 01:00:00 15,4 11,6 12,0 15,5 15,7 8 4 21 12 SW 1006,9 30 0 0,0
20.10.2019 00:00:00 15,1 12,8 12,4 15,5 15,7 4 2 22 12 W 1007,3 23 0 0,0
19.10.2019 23:00:00 16,2 13,9 15,0 15,5 15,7 11 6 24 13 NNW 1007,2 23 0 0,0
19.10.2019 22:00:00 17,1 13,6 14,7 15,5 15,7 9 5 25 13 WSW 1006,9 24 0 0,0
19.10.2019 21:00:00 15,8 14,2 14,4 15,4 15,7 6 3 14 8 NNE 1007,2 23 0 0,0
19.10.2019 20:00:00 16,0 14,4 14,9 15,4 15,7 10 5 19 11 NW 1007,3 17 0 0,8
19.10.2019 19:00:00 16,3 15,0 15,4 15,4 15,7 11 6 16 9 NW 1007,0 13 0 0,6
19.10.2019 18:00:00 16,9 15,2 16,0 15,3 15,7 8 4 19 11 WNW 1006,7 14 0 0,2
19.10.2019 17:00:00 17,4 15,6 16,6 15,3 15,7 9 5 16 9 WNW 1006,5 7 0 0,4
19.10.2019 16:00:00 17,9 15,9 16,6 15,2 15,7 10 6 20 11 W 1006,4 22 0 0,2
19.10.2019 15:00:00 18,0 16,0 17,7 15,2 15,7 5 3 14 8 NNW 1005,9 26 0 0,0
19.10.2019 14:00:00 18,4 15,3 17,5 15,2 15,7 5 3 10 6 NNE 1006,6 27 0 0,0
19.10.2019 13:00:00 17,3 14,9 17,3 15,1 15,7 7 4 15 8 E 1007,6 26 4 0,0
19.10.2019 12:00:00 16,0 14,4 15,3 15,1 15,7 10 6 24 13 NNE 1008,9 20 0 0,0
19.10.2019 11:00:00 15,2 13,9 15,1 15,1 15,7 8 5 18 10 E 1009,5 24 13 0,0
19.10.2019 10:00:00 14,8 14,2 14,2 15,2 15,7 13 7 18 10 E 1010,0 19 1 0,2
19.10.2019 09:00:00 14,3 13,8 13,8 15,2 15,7 12 6 22 12 E 1010,1 9 0 0,4
19.10.2019 08:00:00 14,6 13,3 13,7 15,2 15,7 3 2 30 16 ESE 1010,0 24 0 0,2
19.10.2019 07:00:00 14,3 13,7 13,2 15,2 15,8 15 8 30 16 E 1010,1 5 0 1,2
19.10.2019 06:00:00 13,6 13,1 13,0 15,2 15,7 5 3 14 8 E 1010,6 2,6 0 0,0
19.10.2019 05:00:00 13,6 13,1 12,9 15,2 15,7 3 2 9 5 E 1010,9 2,5 0 0,0
19.10.2019 04:00:00 14,2 13,4 13,3 15,2 15,7 4 2 18 10 E 1010,9 2,5 0 0,0
19.10.2019 03:00:00 14,3 13,7 13,2 15,3 15,7 9 5 14 8 WNW 1011,5 8 0 0,0
19.10.2019 02:00:00 14,3 13,3 13,2 15,2 15,7 7 4 25 14 SSW 1011,4 9 0 0,2
19.10.2019 01:00:00 14,3 13,7 13,7 15,3 15,8 14 8 21 11 NE 1011,5 4,3 0 0,0
19.10.2019 00:00:00 14,3 13,7 13,6 15,2 15,7 9 5 13 7 E 1012,5 4,4 0 0,0
18.10.2019 23:00:00 14,3 13,7 13,2 15,2 15,7 5 3 16 8 ESE 1013,0 4,3 0 0,0
18.10.2019 22:00:00 14,1 13,3 12,4 15,2 15,8 5 3 18 10 ESE 1013,4 6 0 1,4
18.10.2019 21:00:00 14,8 14,2 13,9 15,2 15,8 9 5 14 8 ENE 1013,7 2,2 0 2,6
18.10.2019 20:00:00 15,3 13,7 14,0 15,1 15,8 2 1 10 5 SSW 1013,5 11 0 0,2
18.10.2019 19:00:00 15,5 13,3 14,2 15,1 15,8 3 2 10 5 ENE 1013,4 18 0 0,0
18.10.2019 18:00:00 16,2 13,1 15,2 15,0 15,8 3 2 11 6 N 1013,5 16 0 0,0
18.10.2019 17:00:00 16,7 12,8 15,4 14,9 15,8 5 3 19 10 S 1013,8 14 0 0,0
18.10.2019 16:00:00 16,9 13,4 16,1 14,8 15,8 14 8 23 13 WSW 1014,0 14 0 0,2
18.10.2019 15:00:00 18,1 12,8 18,4 14,7 15,8 16 9 29 15 WSW 1013,7 10 0 0,0
18.10.2019 14:00:00 19,3 12,1 20,7 14,7 15,8 18 10 30 16 SSW 1013,8 7 20 0,0
18.10.2019 13:00:00 18,6 12,8 18,9 14,6 15,8 8 5 14 8 WSW 1014,9 18 25 0,0
18.10.2019 12:00:00 16,5 13,8 17,6 14,6 15,8 11 6 15 8 W 1015,7 23 0 0,0
18.10.2019 11:00:00 15,5 11,9 14,8 14,6 15,8 5 3 16 9 NNW 1015,6 20 0 0,0
18.10.2019 10:00:00 13,8 13,2 12,7 14,7 15,8 12 6 18 10 E 1015,6 10 0 0,0
18.10.2019 09:00:00 12,7 12,2 12,0 14,7 15,9 6 3 9 5 E 1015,6 8 0 0,0
18.10.2019 08:00:00 12,4 11,9 11,8 14,7 15,8 6 4 10 6 N 1015,4 6 0 0,8
18.10.2019 07:00:00 12,4 11,8 11,8 14,7 15,8 5 3 10 5 SSW 1014,9 10 0 0,2
18.10.2019 06:00:00 12,6 11,8 11,5 14,7 15,8 2 1 13 7 SE 1014,8 12 0 0,0
18.10.2019 05:00:00 12,3 11,5 11,2 14,8 15,8 8 4 18 10 E 1015,0 14 0 0,0
18.10.2019 04:00:00 12,7 11,9 11,8 14,8 15,8 6 3 14 8 E 1015,6 20 0 0,0
18.10.2019 03:00:00 12,7 12,4 10,4 14,8 15,8 11 6 15 8 E 1015,9 8 0 0,0
18.10.2019 02:00:00 12,6 12,1 10,4 14,8 15,9 5 3 10 5 E 1016,5 12 0 0,0
18.10.2019 01:00:00 12,9 12,3 11,6 14,8 15,8 9 5 18 10 ENE 1016,4 11 0 0,0
18.10.2019 00:00:00 13,8 12,7 12,5 14,8 15,9 6 3 10 5 NE 1017,1 17 0 0,2
17.10.2019 23:00:00 14,5 13,2 13,4 14,7 15,9 7 4 15 8 W 1017,3 9 0 0,2
17.10.2019 22:00:00 14,8 12,8 13,5 14,7 15,9 10 6 23 13 WSW 1016,8 15 0 0,0
17.10.2019 21:00:00 15,0 12,1 13,9 14,7 15,9 9 5 13 7 WSW 1016,4 24 0 0,0
17.10.2019 20:00:00 15,7 12,3 14,0 14,6 15,9 4 2 10 5 SSW 1016,1 36 0 0,0
17.10.2019 19:00:00 15,7 12,4 14,2 14,6 15,9 3 1 12 7 SSE 1015,7 46 0 0,0
17.10.2019 18:00:00 16,2 12,7 14,4 14,5 15,9 6 3 20 11 WNW 1015,5 48 0 0,2
17.10.2019 17:00:00 17,7 10,8 16,5 14,4 15,9 10 6 27 15 WSW 1015,3 45 0 0,0
17.10.2019 16:00:00 18,4 10,2 17,9 14,4 15,9 18 10 40 22 SSW 1015,2 45 0 0,0
17.10.2019 15:00:00 18,6 11,2 18,3 14,3 15,9 18 10 37 20 SW 1014,9 55 0 0,0
17.10.2019 14:00:00 18,9 11,2 19,0 14,3 15,9 18 10 36 19 SW 1015,0 48 0 0,0
17.10.2019 13:00:00 18,1 11,2 18,5 14,3 15,9 14 7 38 20 SW 1015,5 44 0 0,0
17.10.2019 12:00:00 17,9 10,3 18,7 14,3 15,9 15 8 31 17 SSW 1015,9 37 27 0,0
17.10.2019 11:00:00 16,2 9,8 13,1 14,4 16,0 6 4 20 11 ENE 1016,2 15 60 0,0
17.10.2019 10:00:00 11,3 9,2 10,3 14,4 16,0 13 7 20 11 E 1017,3 36 5 0,0
17.10.2019 09:00:00 10,6 8,7 8,7 14,5 15,9 13 7 24 13 ENE 1017,5 22 30 0,0
17.10.2019 08:00:00 9,2 8,0 7,7 14,5 15,9 15 8 24 13 ENE 1017,1 29 0 0,0
17.10.2019 07:00:00 8,6 7,8 7,2 14,6 15,9 12 6 22 12 ENE 1017,1 29 0 0,0
17.10.2019 06:00:00 8,6 7,7 6,6 14,6 15,9 11 6 15 8 ENE 1017,6 30 0 0,0
17.10.2019 05:00:00 8,6 7,8 6,5 14,7 16,0 14 8 16 9 E 1017,8 26 0 0,0
17.10.2019 04:00:00 9,3 7,4 7,2 14,7 15,9 9 5 13 7 ENE 1018,2 33 0 0,0
17.10.2019 03:00:00 11,2 9,1 10,5 14,8 16,0 11 6 18 10 ENE 1017,9 31 0 0,0
17.10.2019 02:00:00 12,1 9,3 10,8 14,8 16,0 3 1 13 7 ESE 1017,6 30 0 0,0
17.10.2019 01:00:00 12,8 8,9 9,2 14,9 16,0 6 3 16 9 SSW 1017,1 40 0 0,0
17.10.2019 00:00:00 11,3 8,0 8,4 14,9 16,0 4 2 11 6 SE 1017,3 40 0 0,0
16.10.2019 23:00:00 10,7 7,6 8,0 15,0 16,0 5 3 10 5 ENE 1017,5 46 0 0,0
16.10.2019 22:00:00 11,5 7,0 8,1 15,0 16,0 3 2 11 6 ENE 1017,0 50 0 0,0
16.10.2019 21:00:00 12,3 7,2 7,6 14,9 16,0 2 1 23 12 W 1016,8 54 0 0,0
16.10.2019 20:00:00 13,9 7,4 10,2 14,9 16,0 9 5 22 12 SW 1016,3 53 0 0,0
16.10.2019 19:00:00 14,3 6,9 11,3 14,8 16,0 8 5 17 9 WSW 1015,6 54 5 0,0
16.10.2019 18:00:00 16,3 7,5 15,8 14,7 16,0 12 6 23 12 WSW 1015,0 51 57 0,0
16.10.2019 17:00:00 17,9 7,0 16,9 14,6 16,0 9 5 33 18 SW 1015,1 38 42 0,0
16.10.2019 16:00:00 18,4 5,9 21,2 14,5 16,0 13 7 26 14 S 1015,2 19 60 0,0
16.10.2019 15:00:00 18,0 6,2 20,2 14,4 16,0 18 10 32 18 SSW 1015,9 19 60 0,0
16.10.2019 14:00:00 17,0 8,2 19,5 14,4 16,0 4 2 19 10 SE 1016,5 29 60 0,0
16.10.2019 13:00:00 14,8 9,4 16,6 14,4 16,0 13 7 24 13 ENE 1017,7 14 60 0,0
16.10.2019 12:00:00 13,5 10,1 14,6 14,5 16,0 15 8 22 12 E 1018,2 12 60 0,0
16.10.2019 11:00:00 11,6 9,0 11,9 14,6 16,0 13 7 20 11 E 1019,2 9 60 0,0
16.10.2019 10:00:00 9,5 8,3 7,8 14,6 16,0 13 7 22 12 E 1019,6 8 46 0,0
16.10.2019 09:00:00 7,7 7,4 6,7 14,8 16,0 13 7 22 12 E 1020,0 7 2 0,0
16.10.2019 08:00:00 7,2 6,9 3,9 14,9 16,0 19 11 26 14 E 1019,4 9 0 0,0
16.10.2019 07:00:00 6,2 5,9 4,5 15,0 16,0 10 5 22 12 E 1019,6 14 0 0,0
16.10.2019 06:00:00 6,4 5,8 5,2 15,1 16,0 14 7 24 13 E 1019,5 14 0 0,0
16.10.2019 05:00:00 7,8 7,5 7,2 15,2 16,0 19 10 27 15 E 1019,1 6 0 0,0
16.10.2019 04:00:00 7,6 7,6 4,8 15,3 16,0 19 10 24 13 E 1019,5 0,5 0 0,0
16.10.2019 03:00:00 7,9 7,9 2,7 15,4 16,0 13 7 21 11 ENE 1019,5 4,1 0 0,0
16.10.2019 02:00:00 6,1 5,7 3,0 15,4 16,0 10 5 13 7 ESE 1019,9 50 0 0,0
16.10.2019 01:00:00 6,1 5,7 4,1 15,5 16,0 10 5 14 8 E 1019,7 41 0 0,0
16.10.2019 00:00:00 7,3 7,0 4,7 15,6 16,0 8 4 18 10 E 1019,6 14 0 0,0
15.10.2019 23:00:00 7,2 6,8 5,7 15,6 16,0 14 7 16 8 E 1019,4 16 0 0,0
15.10.2019 22:00:00 8,6 7,7 7,2 15,7 16,0 10 6 19 11 E 1018,9 35 0 0,0
15.10.2019 21:00:00 10,3 9,2 9,2 15,7 16,0 14 7 19 10 ENE 1018,0 50 0 0,0
15.10.2019 20:00:00 11,3 9,9 10,5 15,6 16,0 9 5 14 8 E 1017,3 54 0 0,0
15.10.2019 19:00:00 11,8 9,0 11,4 15,6 16,0 10 6 23 12 N 1016,4 38 0 0,0
15.10.2019 18:00:00 12,3 10,0 11,7 15,6 16,0 6 4 11 6 SSE 1014,7 31 3 0,0
15.10.2019 17:00:00 12,7 8,8 9,5 15,6 16,0 2 1 48 26 NNE 1013,8 30 34 2,4
15.10.2019 16:00:00 15,3 9,9 15,7 15,6 16,0 11 6 23 12 SSW 1012,3 34 23 0,0
15.10.2019 15:00:00 14,4 10,8 15,7 15,6 16,0 10 5 18 10 S 1011,8 42 1 0,0
15.10.2019 14:00:00 13,2 12,3 12,5 15,6 16,0 4 2 12 6 SE 1012,1 50 0 1,0
15.10.2019 13:00:00 12,5 11,7 12,0 15,6 16,0 8 4 - - SSW 1012,4 6 0 3,7
15.10.2019 12:00:00 12,3 11,4 11,9 15,7 16,0 - - - - - 1012,2 2,7 0 2,8
15.10.2019 11:00:00 13,3 12,8 13,2 15,7 16,0 10 5 14 7 W 1010,7 16 0 0,8
15.10.2019 10:00:00 13,2 12,7 12,6 15,7 16,0 6 3 - - E 1009,9 24 0 0,8
15.10.2019 09:00:00 12,8 12,3 12,4 15,8 16,0 - - - - - 1010,3 6 0 10,0
15.10.2019 08:00:00 15,0 14,2 14,3 15,8 16,0 10 5 25 14 SW 1008,8 1,8 0 7,7
15.10.2019 07:00:00 15,6 13,8 14,5 15,8 16,0 17 9 47 26 WSW 1007,5 7 0 6,4
15.10.2019 06:00:00 19,8 12,1 16,6 15,9 16,0 24 13 46 25 S 1006,8 13 0 0,0

tt = Température de l'air
td = dewpoint
tt 5cm = Température de l'air 5cm
tt -20cm = Température de l'air -20cm
tt -100cm = Température de l'air -100cm
ff = Vitesse du vent
fx = gusts
dd = Direction du vent
ppp = reduced air pressure
vv = visibility
sd = Ensoleillement
rr = Quantités de précipitations

stations d'obs. à proximité